www.pogodaiklimat.ru

Погода и климат >> Архив погоды >> Беларусь >> Воложин


ПОГОДА в Воложине

  • Прогноз погоды в Воложине
  • Монитор погоды в Воложине
  • Климат города

АРХИВ ПОГОДЫ в Воложине

Время (UTC), дата Ветер
(напр.,м/с)
 
Видим.   Явления Облачность Т
(С)
Тd
(С)
f
(%)
Тe
(С)
Тes
(С)
Комфортность P
(гПа)
Po
(гПа)
Тmin
(С)
Tmax
(С)
R
(мм)
R24
(мм)
S
(см)
21 18.06 СЗ 3 35 км 10/0
[Ac As]
+20.6 +13.8 65 +23 +23 комфорт 1016.5 989.7
00 19.06 СЗ 1 35 км 9/0
[Ac As]
+18.6 +14.4 77 +20 +20 1016.9 989.8
03 19.06 СВ 3 35 км {ливн. осадки} 8/0
[Ac trans]
+16.7 +13.0 79 +16 +17 1017.1 989.8 +16.6
06 19.06 В 2 35 км {ливн. осадки} 3/0
[Ac trans]
+20.5 +9.8 50 +23 +28 комфорт 1017.0 990.1 +16.6 0.3
09 19.06 ЮЗ 3 30 км 6/0
[Ac trans]
+24.5 +11.7 45 +26 +34 жарко 1015.7 989.3
12 19.06 ЮЗ 5
{10}
35 км 6/6 600 м
[Cu med, cong]
+26.6 +12.0 40 +28 +31 жарко 1014.3 988.2
15 19.06 З 6-11
{13}
35 км 8/0
[Ac trans]
+25.8 +9.4 35 +26 +27 жарко 1013.6 987.4
18 19.06 З 4
{12}
35 км 8/0
[Ac trans]
+22.4 +9.7 44 +24 +24 комфорт 1014.6 988.0 +27.0
21 19.06 З 4 35 км 8/0
[Ac trans]
+18.9 +10.9 60 +20 +20 1016.3 989.3
00 20.06 З 2 30 км ясно +14.3 +10.6 78 +14 +14 1017.8 990.3
03 20.06 З 2 35 км ясно +13.5 +10.9 84 +13 +13 1018.3 990.7 +12.7
06 20.06 З 5-11
{10}
24 км 6/6 1000 м
[Cu hum]
+17.4 +11.7 69 +17 +18 1018.1 990.9 +12.7
09 20.06 З 6-11
{13}
30 км 3/3 1000 м
[Cu hum]
+21.5 +7.3 40 +22 +27 комфорт 1017.6 990.8
12 20.06 З 6-12
{14}
24 км ясно +24.1 +4.3 28 +24 +29 комфорт 1016.5 990.0
15 20.06 З 5-10
{12}
35 км ясно +24.7 +6.0 30 +25 +27 комфорт 1016.1 989.7
18 20.06 З 2
{11}
35 км ясно +21.8 +8.9 44 +23 +23 комфорт 1016.0 989.3 +25.2
21 20.06 З 1 35 км ясно +16.8 +8.3 57 +18 +18 1017.4 990.1
00 21.06 СЗ 1 35 км ясно +16.3 +9.3 63 +17 +17 1016.8 989.5
03 21.06 Ю 1 35 км ясно +13.4 +8.2 71 +14 +14 1016.8 989.2 +12.7
06 21.06 ЮВ 3 35 км 9/9 600 м
[Sc]
+20.4 +11.2 55 +22 +23 комфорт 1015.0 988.2 +12.7
09 21.06 ЮЗ 4
{11}
35 км 8/4 600 м
[Cb calv Ac trans]
+26.2 +12.1 41 +28 +31 жарко 1012.2 986.1
12 21.06 ЮЗ 5-11
{11}
27 км 6/6 600 м
[Cb calv]
+28.4 +11.3 35 +29 +32 жарко 1009.3 983.5
15 21.06 ЮЗ 6-11
{11}
35 км 6/6 600 м
[Cb calv]
+28.2 +10.3 33 +29 +30 жарко 1006.7 980.9
18 21.06 Ю 4
{11}
35 км 6/3 600 м
[Cb calv Ac trans]
+25.7 +12.0 42 +27 +27 жарко 1004.8 978.8 +29.3
21 21.06 Ю 4 35 км 3/0
[Ac lent]
+22.9 +12.9 53 +26 +26 жарко 1003.0 976.8
00 22.06 ЮЗ 1
{19}
22 км в посл. час ливневой дождь 9/0
[Ac As]
+17.6 +16.5 93 +19 +19 1003.6 976.8
03 22.06 З 3
{11}
35 км 9/6 600 м
[Cb cap Ac As]
+12.7 +11.1 90 +11 +11 1007.8 980.4 +12.7
06 22.06 З 4 35 км {ливн. осадки} 9/9 720 м
[Sc]
+12.6 +9.5 81 +11 +11 1009.4 981.9 +12.2 1
09 22.06 З 4 35 км 8/8 800 м
[Sc]
+15.4 +8.0 61 +15 +17 1009.9 982.7
12 22.06 ЮЗ 5-10
{11}
28 км 8/6 1410 м
[Sc Ac trans]
+18.1 +7.4 50 +18 +20 1010.4 983.5
15 22.06 З 4
{11}
35 км 8/6 600 м
[Cb calv Ac trans]
+18.2 +4.1 39 +18 +19 1011.5 984.5
18 22.06 СЗ 2 10 км 10 баллов +16.8 +2.8 39 +17 +17 1012.0 993.7 +19.2
21 22.06 СЗ 2 35 км 9/0
[Ac As]
+13.8 +4.4 53 +13 +13 1014.2 986.7
00 23.06 С 1 35 км 9/0
[Ac As]
+12.1 +5.6 64 +12 +12 1014.4 986.7
03 23.06 штиль 0 35 км 9/0
[Ac As]
+11.0 +6.2 72 +11 +11 1014.6 986.8 +10.3
06 23.06 штиль 0 35 км 9/0
[Ac As]
+12.8 +7.7 71 +12 +16 1014.5 986.9 +10.3
09 23.06 штиль 0 10 км 10 баллов +14.5 +7.5 63 +14 +14 1014.0 995.5
12 23.06 З 1 35 км 9/9 600 м
[Sc]
+16.2 +6.9 54 +17 +19 1012.6 985.4
15 23.06 штиль 0 35 км в посл. час ливневой дождь 9/9 800 м
[Sc]
+13.3 +10.2 81 +13 +14 1012.2 984.7
18 23.06 СЗ 1 30 км {ливн. осадки} 9/9 1170 м
[Sc]
+11.9 +9.4 85 +12 +12 1011.8 984.2 +16.5 3
21 23.06 СЗ 2 35 км 9/9 1140 м
[Sc]
+10.6 +9.6 94 +9 +9 1010.9 983.2
00 24.06 СВ 1 11 км слабый ливневой дождь 9/8 600 м
[Cb cap Ac As]
+10.5 +9.8 95 +10 +10 1010.0 982.3
03 24.06 З 2 4100 м слабый дождь {ливн. осадки} 10/10 270 м
[Frnb Ns]
+10.0 +9.8 99 +8 +8 1009.5 981.7 +9.9
06 24.06 З 2 7000 м слабый дождь {ливн. осадки} 10/10 270 м
[Frnb Ns]
+10.5 +10.4 99 +9 +9 1008.9 981.2 +9.8 10
09 24.06 ЮЗ 3 30 км {дождь} 9/6 600 м
[Cb cap Ac As]
+12.4 +10.1 86 +11 +13 1009.3 981.8
12 24.06 ЮЗ 2 6000 м ливневой дождь 9/8 600 м
[Cb cap Ac As]
+12.3 +11.1 92 +11 +13 1010.5 983.0
15 24.06 Ю 1 35 км {ливн. осадки} 8/4 600 м
[Cb calv Ac trans]
+13.3 +10.4 83 +13 +16 1011.4 983.9
18 24.06 Ю 1 35 км {ливн. осадки} 4/0
[Ac trans]
+11.6 +9.3 86 +11 +12 1012.2 984.5 +13.8 11
21 24.06 штиль 0 35 км 8/0
[Ac trans]
+10.4 +9.0 91 +10 +10 1013.2 985.4
00 25.06 ЮЗ 1 14 км 9/0
[Ac As]
+9.9 +9.6 98 +9 +9 1013.3 985.4
03 25.06 Ю 1 10 км 10 баллов +9.8 +9.5 98 +9 +9 1014.0 995.2 +9.7
06 25.06 ЮЗ 2 10 км дождь 10 баллов +11.3 +10.5 95 +10 +10 1015.0 996.3 +9.7 0.4
09 25.06 Ю 3 10 км 10 баллов +15.8 +10.3 70 +15 +15 1014.0 995.6
12 25.06 ЮЗ 4
{11}
10 км 10 баллов +14.6 +10.0 74 +13 +13 1016.0 997.5
15 25.06 Ю 4 10 км 10 баллов +14.0 +10.0 77 +13 +13 1017.0 998.5
18 25.06 ЮЗ 2 10 км 10 баллов +13.5 +9.7 78 +13 +13 1018.0 999.4 +15.8 2

 

Местоположение метеостанции Воложин (Минская область, Беларусь): широта 54.09 долгота 26.52 высота над уровнем моря 155 м.

В архиве по умолчанию представлена погода в Воложине за последнюю неделю. Архивные данные за месяц целиком и за предыдущие месяцы, начиная с января 2011 года, Вы можете получить, выбрав интересующий диапазон дат из раскрывающегося списка и нажав кнопку "Ввод!".


*Определитесь, кто Вы:
робот инопланетянин человек

Внимание! Время в таблицах - всемирное. Для получения местного времени необходимо прибавить поправку, которая в Воложине равна 3 ч.

Смотрите также архив погоды в соседних городах и на ближайших метеорологических станциях:

Погода в Ошмянах (Гродненская область, Беларусь) (54 км)
Погода в Вилейке (Минская область, Беларусь) (56 км)
Погода в Столбцах (Минская область, Беларусь) (69 км)
Погода в Новогрудке (Гродненская область, Беларусь) (70 км)
Погода в Минске (город Минск, Беларусь) (75 км)
Погода в Лиде (Гродненская область, Беларусь) (81 км)
Погода в Нарочи (Минская область, Беларусь) (95 км)
Погода в Vilnius (Литва) (100 км)
Погода в Лынтупах (Витебская область, Беларусь) (108 км)
Погода в Барановичах (Брестская область, Беларусь) (113 км)

Пояснения к столбцам:

Ветер - указаны скорость ветра в м/с - средняя за 10 мин, порывы в срок и между сроками (в фигурных скобках) и направление, откуда дует ветер: С - северный, СВ - северо-восточный, В - восточный, ЮВ - юго-восточный, Ю - южный, ЮЗ - юго-западный, З - западный, СЗ - северо-западный.
Видимость - горизонтальная дальность видимости в метрах или километрах. При видимости от 1 до 10 км при отсутствии осадков обычно наблюдается дымка, при ухудшении видимости до 1 км и менее - туман. В сухую погоду видимость может ухудшаться дымом, пылью или мглою.
Явления - указаны атмосферные явления, наблюдавшиеся в срок или в последний час перед сроком; фигурными скобками обозначены явления, наблюдавшиеся между сроками (за 1-3 часа до срока); квадратными скобками обозначены град или гололедные отложения с указанием их диаметра в мм.
Облачность - указаны через наклонную черту общая и нижняя облачность в баллах и высота нижней границы облаков в метрах; квадратными скобками обозначены формы облаков: Ci - перистые, Cs - перисто-слоистые, Cc - перисто-кучевые, Ac - высококучевые, As - высокослоистые, Sc - слоисто-кучевые, Ns - слоисто-дождевые, Cu - кучевые, Cb - кучево-дождевые. Подробнее классификацию облаков см. в Атласе облаков (PDF).
T - Температура воздуха - температура, измеренная на высоте 2 м над землей.
Td - Температура точки росы - температура, при понижении до которой содержащийся в воздухе водяной пар достигнет насыщения.
f - Относительная влажность воздуха - влажноcть воздуха, измеренная на высоте 2 м над землей.
Te - Эффективная температура - температура, которую ощущает одетый по сезону человек в тени. Характеристика душности погоды. При расчете учитывается влияние влажности воздуха и скорости ветра на теплоощущения человека.
Tes - Эффективная температура на солнце - температура, которую ощущает человек, с поправкой на солнечный нагрев. Характеристика знойности погоды. Зависит от высоты солнца над горизонтом, облачности и скорости ветра. Ночью, в пасмурную погоду, а также при ветре 12 м/с и более поправка равна нулю.
P - Атмосферное давление - приведенное к уровню моря атмосферное давление.
Po - Атмосферное давление - измеренное на уровне метеостанции атмосферное давление.
Tmin - Минимальная температура - минимум температуры воздуха на высоте 2 м над землей.
Tmax - Максимальная температура - максимум температуры воздуха на высоте 2 м над землей.
R - Количество осадков - Количество выпавших осадков за период времени, мм. При наведении курсора мыши на число - период времени, за который выпало указанное количество осадков.
R24 - Количество осадков - Количество выпавших осадков за 24 часа, мм.
S - Снежный покров - Высота снежного покрова, см. При наведении курсора мыши на число - состояние снежного покрова и степень покрытия местности в баллах.